FW9692 Weather Reports


time (UTC)temp
F
wind
direction
speed
knots
gust
knots
rain 1hr
in
rain 24hr
in
rain mn
in
humidity
%
barometer
mb
20260509034530 73 244 12.2 16.5 0.00 0.00 0.00 34 1000.1
20260509033026 74 227 13.0 16.5 0.00 0.00 0.00 33 1000.0
20260509031537 75 228 13.0 19.1 0.00 0.00 0.00 33 999.8
20260509024519 76 228 14.8 18.2 0.00 0.00 0.00 30 999.7
20260509023021 77 225 13.9 19.1 0.00 0.00 0.00 29 999.7
20260509021520 78 223 14.8 20.9 0.00 0.00 0.00 26 999.6
20260509014530 79 194 14.8 20.0 0.00 0.00 0.00 25 999.0
20260509004517 82 178 14.8 20.0 0.00 0.00 0.00 28 998.4
20260509003012 84 165 9.6 14.8 0.00 0.00 0.00 18 998.3
20260509001512 84 147 9.6 15.6 0.00 0.00 0.00 17 998.3
20260509000109 84 153 9.6 13.0 0.00 0.00 0.00 18 998.3
20260508234516 84 146 9.6 13.0 0.00 0.00 0.00 19 998.4
20260508233016 84 196 3.5 7.8 0.00 0.00 0.00 18 998.4
20260508231514 84 115 3.5 9.6 0.00 0.00 0.00 18 998.4
20260508230114 84 178 1.7 13.9 0.00 0.00 0.00 18 998.3
20260508224642 84 98 9.6 14.8 0.00 0.00 0.00 18 998.3
20260508223059 84 124 4.3 8.7 0.00 0.00 0.00 17 998.3
20260508221557 84 339 7.8 12.2 0.00 0.00 0.00 17 998.3
20260508220057 84 15 7.8 13.9 0.00 0.00 0.00 17 998.6
20260508214510 84 330 3.5 8.7 0.00 0.00 0.00 18 998.7
20260508213018 83 44 2.6 8.7 0.00 0.00 0.00 21 998.8
20260508211503 82 123 9.6 13.0 0.00 0.00 0.00 22 998.8
20260508204553 81 28 7.8 14.8 0.00 0.00 0.00 29 999.0
20260508203100 80 51 9.6 13.9 0.00 0.00 0.00 33 999.3
20260508201552 79 17 8.7 13.0 0.00 0.00 0.00 38 999.6
20260508200044 78 90 9.6 15.6 0.00 0.00 0.00 39 999.8
20260508194600 77 40 7.0 13.9 0.00 0.00 0.00 47 1000.0
20260508193103 76 25 4.3 13.0 0.00 0.00 0.00 49 1000.3
20260508191553 75 15 6.1 10.4 0.00 0.00 0.00 51 1000.4
20260508190050 74 43 5.2 11.3 0.00 0.00 0.00 55 1000.8
20260508184546 73 51 4.3 9.6 0.00 0.00 0.00 57 1001.1
20260508183044 72 102 7.0 9.6 0.00 0.00 0.00 61 1001.3
20260508181536 71 128 0.9 9.6 0.00 0.00 0.00 64 1001.4
20260508180037 69 9 4.3 11.3 0.00 0.00 0.00 67 1001.8
20260508174533 68 115 4.3 9.6 0.00 0.00 0.00 69 1001.9
20260508173027 67 119 5.2 8.7 0.00 0.00 0.00 71 1002.1
20260508171529 66 96 2.6 10.4 0.00 0.00 0.00 73 1002.3
20260508170025 65 178 2.6 9.6 0.00 0.00 0.00 73 1002.6
20260508164527 65 104 1.7 11.3 0.00 0.00 0.00 74 1002.5
20260508163031 65 119 2.6 10.4 0.00 0.00 0.00 75 1002.7
20260508161522 63 51 2.6 5.2 0.00 0.00 0.00 78 1002.9
20260508160023 62 80 2.6 8.7 0.00 0.00 0.00 81 1003.2
20260508154508 61 49 4.3 7.8 0.00 0.00 0.00 82 1003.3
20260508153005 60 36 2.6 6.1 0.00 0.00 0.00 84 1003.3
20260508151504 59 51 1.7 4.3 0.00 0.00 0.00 85 1003.4
20260508150010 59 49 2.6 10.4 0.00 0.00 0.00 85 1003.5
20260508144508 58 16 0.9 7.0 0.00 0.00 0.00 86 1003.5
20260508143010 58 28 1.7 5.2 0.00 0.00 0.00 86 1003.5
20260508141508 58 55 3.5 8.7 0.00 0.00 0.00 86 1003.5
20260508140009 58 64 5.2 7.8 0.00 0.00 0.00 85 1003.5
20260508134559 58 59 2.6 5.2 0.00 0.00 0.00 85 1003.5
20260508133108 57 178 0.0 1.7 0.00 0.00 0.00 85 1003.5
20260508133003 57 119 0.0 1.7 0.00 0.00 0.00 85 1003.5
20260508131602 57 41 3.5 6.1 0.00 0.00 0.00 84 1003.4
20260508130100 58 93 5.2 8.7 0.00 0.00 0.00 83 1003.2
20260508124525 57 117 2.6 6.1 0.00 0.00 0.00 83 1002.9
20260508123025 57 88 1.7 5.2 0.00 0.00 0.00 82 1002.7
20260508121525 57 84 4.3 6.1 0.00 0.00 0.00 81 1002.5
20260508114510 57 137 2.6 5.2 0.00 0.00 0.00 80 1002.5
20260508113009 58 137 2.6 6.1 0.00 0.00 0.00 79 1002.6
20260508111507 58 121 2.6 7.8 0.00 0.00 0.00 80 1002.3
20260508110006 58 139 5.2 11.3 0.00 0.00 0.00 81 1002.3
20260508104555 59 150 7.8 10.4 0.00 0.00 0.00 80 1002.3
20260508103153 58 138 9.6 13.0 0.00 0.00 0.00 80 1002.4
20260508101553 59 163 9.6 12.2 0.00 0.00 0.00 79 1002.8
20260508100049 58 156 6.1 9.6 0.00 0.00 0.00 77 1002.9
20260508094557 58 150 4.3 7.0 0.00 0.00 0.00 76 1003.2
20260508093054 58 142 9.6 12.2 0.00 0.00 0.00 75 1002.8
20260508091607 58 137 8.7 11.3 0.00 0.00 0.00 74 1002.5
20260508090055 59 131 7.0 8.7 0.00 0.00 0.00 71 1002.7
20260508084522 59 121 7.0 9.6 0.00 0.00 0.00 70 1003.0
20260508083020 59 128 3.5 9.6 0.00 0.00 0.00 69 1003.2
20260508081525 60 65 6.1 8.7 0.00 0.00 0.00 69 1002.9
20260508080029 60 171 4.3 6.1 0.00 0.00 0.00 68 1003.7
20260508074536 60 150 3.5 7.0 0.00 0.00 0.00 68 1003.9
20260508073033 60 132 5.2 8.7 0.00 0.00 0.00 69 1004.0
20260508071532 60 123 7.0 8.7 0.00 0.00 0.00 67 1004.0
20260508070031 61 110 3.5 7.8 0.00 0.00 0.00 67 1004.1
20260508064543 61 119 3.5 7.8 0.00 0.00 0.00 67 1003.8
20260508063032 61 124 4.3 7.8 0.00 0.00 0.00 67 1003.9
20260508061536 61 123 1.7 2.6 0.00 0.00 0.00 66 1003.9
20260508060032 61 148 4.3 7.8 0.00 0.00 0.00 66 1004.1
20260508054538 62 160 7.8 11.3 0.00 0.00 0.00 65 1004.0
20260508053025 62 163 10.4 13.0 0.00 0.00 0.00 65 1004.1
20260508051530 62 168 13.0 16.5 0.00 0.00 0.00 64 1004.1
20260508050023 63 173 13.9 18.2 0.00 0.00 0.00 64 1003.8
20260508044526 63 157 14.8 18.2 0.00 0.00 0.00 63 1003.8
20260508043025 63 144 14.8 19.1 0.00 0.00 0.00 62 1004.1
20260508041524 64 147 13.0 17.4 0.00 0.00 0.00 61 1004.2
20260508040039 64 153 16.5 21.7 0.00 0.00 0.00 59 1004.2